This demonstration page uses our WeatherBlox Daily Observations layout. Learn more.

Left ArrowRight Arrow

38.88101, -77.10428

Hourly Observations for June 22, 2021

Temp ( °F °C ) Dew Point ( °F °C ) Humidity (%) Winds ( mph kmh ) Pressure ( in mb ) Visibility ( mi km ) Precip ( " mm )
12:52 am 00:52 Cloudy 75 23.9 70 21.1 84 84 SE 6 9 29.69 1005 10 16 N/A
1:52 am 01:52 Mostly Cloudy 74 23.3 70 21.1 88 88 S 5 7 29.69 1005 10 16 N/A
2:52 am 02:52 Mostly Cloudy 74 23.3 70 21.1 88 88 S 3 6 29.67 1005 10 16 N/A
3:52 am 03:52 Mostly Cloudy 74 23.3 69 20.6 85 85 N N/A 29.67 1005 10 16 N/A
4:52 am 04:52 Mostly Cloudy 74 23.3 68 20 82 82 SE 5 7 29.68 1005 10 16 N/A
5:52 am 05:52 Mostly Cloudy 74 23.3 69 20.6 85 85 E 5 7 29.69 1005 10 16 N/A
6:52 am 06:52 Mostly Cloudy with Light Rain 75 23.9 69 20.6 82 82 N N/A 29.70 1006 10 16 0.00 0.00
7:52 am 07:52 Cloudy with Light Rain 75 23.9 69 20.6 82 82 NNW 13 20 29.73 1007 10 16 0.00 0.00
8:52 am 08:52 Cloudy with Light Rain 72 22.2 66 18.9 82 82 NNW 10 17 29.75 1008 10 16 0.01 0.25
9:52 am 09:52 Cloudy 71 21.7 63 17.2 76 76 NNW 13 20 29.78 1008 10 16 0.00 0.00
10:41 am 10:41 Cloudy with Light Rain 68 20 63 17.2 84 84 N 14 22 29.79 1009 10 16 0.00 0.00
10:52 am 10:52 Cloudy with Rain 67 19.4 63 17.2 87 87 N 12 19 29.80 1009 6 10 0.01 0.25
11:02 am 11:02 Cloudy with Light Rain 67 19.4 64 17.8 91 91 N 6 9 29.80 1009 4 6 0.02 0.51
11:27 am 11:27 Cloudy 67 19.4 62 16.7 84 84 N 10 17 29.81 1009 10 16 0.03 0.76
11:52 am 11:52 Cloudy with Light Rain 67 19.4 63 17.2 87 87 NNW 13 20 29.82 1010 7 11 0.03 0.76
12:12 pm 12:12 Cloudy with Rain 66 18.9 63 17.2 90 90 NW 10 17 29.83 1010 2 3 0.03 0.76
12:23 pm 12:23 Cloudy with Rain 66 18.9 62 16.7 87 87 NW 10 17 29.82 1010 2 3 0.08 2.03
12:43 pm 12:43 Cloudy with Rain 66 18.9 63 17.2 90 90 NNW 9 15 29.81 1009 3 5 0.22 5.59
12:52 pm 12:52 Cloudy with Light Rain 66 18.9 63 17.2 90 90 N 13 20 29.80 1009 4 6 0.24 6.10
1:21 pm 13:21 Cloudy with Light Rain 65 18.3 62 16.7 90 90 NNW 10 17 29.81 1009 7 11 0.02 0.51
1:52 pm 13:52 Cloudy with Rain 66 18.9 63 17.2 90 90 NW 9 15 29.81 1010 6 10 0.04 1.02
2:20 pm 14:20 Cloudy with Light Rain 67 19.4 63 17.2 87 87 VRB 7 11 29.80 1009 10 16 0.01 0.25
2:52 pm 14:52 Mostly Cloudy 68 20 63 17.2 84 84 NNW 12 19 29.80 1009 10 16 0.01 0.25
3:52 pm 15:52 Mostly Cloudy 68 20 62 16.7 81 81 NW 10 17 29.82 1010 10 16 0.00 0.00
4:52 pm 16:52 Mostly Cloudy 69 20.6 58 14.4 68 68 NW 12 19 29.84 1010 10 16 N/A
5:52 pm 17:52 Mostly Cloudy 69 20.6 56 13.3 63 63 NNW 12 19 29.86 1011 10 16 N/A
6:52 pm 18:52 Mostly Cloudy 70 21.1 54 12.2 57 57 NNW 8 13 29.89 1012 10 16 N/A
7:52 pm 19:52 Mostly Cloudy 69 20.6 53 11.7 57 57 NW 10 17 29.92 1013 10 16 N/A
8:52 pm 20:52 Mostly Cloudy 68 20 51 10.6 55 55 NW 5 7 29.96 1014 10 16 N/A
9:52 pm 21:52 Partly Cloudy 66 18.9 52 11.1 61 61 NNW 6 9 29.99 1016 10 16 N/A
10:52 pm 22:52 Mostly Cloudy 65 18.3 50 10 59 59 NNW 8 13 30.02 1017 10 16 N/A
11:52 pm 23:52 Mostly Clear 63 17.2 49 9.4 60 60 NNW 7 11 30.04 1017 10 16 N/A

Powered by AerisWeather